#timestamp,LO_Frequency,Hit 
1504144815.2,286047008.5,N
1504144835.1,286047010.5,N
1504144836.0,286047010.5,N
1504144855.8,286047010.1,N
1504144875.6,286047007.1,N
1504144895.5,286047005.0,N
1504144915.3,286047003.1,N
1504144935.1,286047002.9,N
1504144955.9,286047002.9,N
1504144975.7,286047003.0,N
1504144995.5,286047005.6,N
1504145015.4,286047009.1,P
1504145035.2,286047004.2,N
1504145055.0,286047002.6,N
1504145055.9,286047002.6,N
1504145075.8,286047005.8,N
1504145095.6,286047004.3,N
1504145115.5,286046999.8,N
1504145135.3,286047003.7,N
1504145155.1,286047000.6,N
1504145175.8,286047001.6,N
1504145195.7,286046999.8,N
1504145215.5,286047002.1,N
1504145235.5,286047003.6,N
1504145255.3,286047003.7,N
1504145275.1,286047003.8,N
1504145295.9,286047005.6,N
1504145315.7,286047005.0,N
1504145335.5,286047004.6,N
1504145355.4,286047006.0,N
1504145375.2,286047004.2,N
1504145395.0,286047003.3,N
1504145395.9,286047003.3,N
1504145415.7,286047005.6,N
1504145435.6,286047005.4,N
1504145455.4,286047003.4,N
1504145475.2,286047005.5,N
1504145495.1,286047006.7,P
1504145496.0,286047006.7,P
1504145515.8,286046999.8,N
1504145535.6,286046998.2,N
1504145555.5,286046998.2,N
1504145575.3,286047004.1,N
1504145595.1,286047004.0,N
1504145615.9,286047003.2,N
1504145635.7,286047004.3,N
1504145655.5,286047006.0,N
1504145675.4,286047005.3,N
1504145695.2,286047007.4,N
1504145715.0,286047005.0,N
1504145715.9,286047005.0,N
1504145735.8,286047003.7,N
1504145755.6,286047003.8,N
1504145775.4,286047003.3,N
1504145795.3,286047001.4,N
1504145815.1,286047004.2,N
1504145816.0,286047004.2,N
1504145835.8,286047004.1,N
1504145855.7,286047003.8,N
1504145875.5,286047005.7,N
1504145895.3,286047004.4,N
1504145915.1,286047003.5,N
1504145935.9,286047005.3,N
1504145955.7,286047006.0,N
1504145975.5,286047005.9,N
1504145995.4,286047003.7,N
1504146015.2,286047005.9,N
1504146035.0,286047005.9,N
1504146035.9,286047005.9,N
1504146055.8,286047003.1,N
1504146075.6,286047004.1,N
1504146095.4,286047003.8,N
1504146115.3,286047003.4,N
1504146135.1,286047005.1,P
1504146155.8,286046998.1,P
1504146175.7,286046998.4,N
1504146195.5,286046999.4,N
1504146215.3,286047000.7,N
1504146235.2,286047000.0,N
1504146255.9,286047001.3,N
1504146275.7,286047002.8,N
1504146295.6,286047000.2,N
1504146315.4,286046998.3,N
1504146335.2,286046998.4,N
1504146355.0,286047002.3,N
1504146355.9,286047002.3,N
1504146375.8,286046999.9,N
1504146395.6,286047002.0,N
1504146415.4,286047000.2,N
1504146435.3,286047002.1,N
1504146455.1,286047002.3,N
1504146475.8,286047004.3,N
1504146495.7,286047002.1,N
1504146515.5,286047001.8,N
1504146535.3,286047002.0,N
1504146555.2,286047001.6,N
1504146575.9,286047003.9,N
1504146595.7,286047004.0,N
1504146615.6,286047003.8,N
1504146635.4,286047002.7,N
1504146655.2,286047002.3,N
1504146675.2,286047001.0,N
1504146695.1,286046999.8,N
1504146696.0,286046999.8,N
1504146715.8,286047004.0,N
1504146735.6,286047001.4,N
1504146755.5,286046999.9,N
1504146775.3,286047003.7,N
1504146795.1,286047004.3,N
1504146815.8,286047004.2,N
1504146835.7,286047005.9,P
1504146855.5,286047002.2,N
1504146875.5,286047002.0,N
1504146895.3,286047004.1,N
1504146915.1,286047003.1,N
1504146935.9,286047005.4,P
1504146955.7,286047001.4,N
1504146975.5,286047003.7,N
1504146995.4,286046999.9,N
1504147015.2,286047000.9,N
1504147035.0,286047001.1,N
1504147035.9,286047001.1,N
1504147055.8,286046999.9,N
1504147075.6,286047000.7,N
1504147095.4,286046997.3,N
1504147115.3,286046995.1,N
1504147135.1,286046997.3,N
1504147136.0,286046997.3,N
1504147155.8,286046998.9,N
1504147175.7,286046996.9,N
1504147195.5,286047000.3,N
1504147215.3,286047000.9,N
1504147235.1,286047001.4,N
1504147255.9,286046999.8,N
1504147275.7,286047005.4,N
1504147295.5,286047004.1,N
1504147315.4,286047005.9,N
1504147335.2,286047004.7,N
1504147355.0,286047004.5,N
1504147355.9,286047004.5,N
1504147375.8,286047010.5,P
1504147395.6,286047010.3,N
1504147415.4,286047010.4,N
1504147435.3,286047006.1,N
1504147455.1,286047007.1,N
1504147475.8,286047008.6,N
1504147495.7,286047007.1,N
1504147515.5,286047005.4,N
1504147535.3,286047004.7,N
1504147555.2,286047005.1,N
1504147575.9,286047002.1,N
1504147595.7,286047005.4,N
1504147615.6,286047005.8,N
1504147635.4,286047001.6,N
1504147655.2,286047002.1,N
1504147675.0,286047002.3,N
1504147675.9,286047002.3,N
1504147695.8,286047004.3,N
1504147715.6,286047005.7,N
1504147735.4,286047004.3,N
1504147755.3,286047004.3,N
1504147775.1,286047002.8,N
1504147795.8,286047001.2,N
1504147815.7,286047005.8,N
1504147835.5,286047006.1,N
1504147855.3,286047008.9,P
1504147875.2,286047001.2,N
1504147895.9,286046999.2,N
1504147915.7,286046999.9,N
1504147935.6,286047002.4,N
1504147955.4,286046999.7,N
1504147975.2,286047002.8,N
1504147995.1,286047003.9,N
1504147996.0,286047003.9,N
1504148015.8,286047004.3,N
1504148035.6,286047005.8,N
1504148055.4,286047003.2,N
1504148075.3,286047004.4,N
1504148095.1,286047004.8,N
1504148115.8,286047003.6,N
1504148135.7,286047003.8,N
1504148155.6,286047003.8,N
1504148175.4,286047007.1,P
1504148195.6,286047002.9,N
1504148215.4,286047005.4,N
1504148235.2,286047003.8,N
1504148255.1,286047001.6,N
1504148256.0,286047001.6,N
1504148275.8,286046999.8,N
1504148295.6,286047002.4,N
1504148315.5,286047000.5,N
1504148335.3,286046998.2,N
1504148355.1,286046998.5,N
1504148375.9,286047004.0,N
1504148395.7,286047002.3,N
